TimeMDT,TemperatureF,Dew PointF,Humidity,Sea Level PressureIn,VisibilityMPH,Wind Direction,Wind SpeedMPH,Gust SpeedMPH,PrecipitationIn,Events,Conditions,WindDirDegrees,DateUTC
12:15 AM,32.0,28.4,87,30.06,5.0,NNW,3.5,-,N/A,,Clear,340,2013-03-30 06:15:00
12:35 AM,32.0,32.0,100,30.07,4.0,Calm,Calm,-,N/A,,Clear,0,2013-03-30 06:35:00
12:55 AM,33.8,30.2,87,30.07,5.0,Calm,Calm,-,N/A,,Clear,0,2013-03-30 06:55:00
1:15 AM,32.0,30.2,93,30.07,4.0,Calm,Calm,-,N/A,,Clear,0,2013-03-30 07:15:00
1:35 AM,33.8,30.2,87,30.08,4.0,Calm,Calm,-,N/A,,Clear,0,2013-03-30 07:35:00
2:15 AM,33.8,32.0,93,30.08,6.0,NNW,3.5,-,N/A,,Clear,330,2013-03-30 08:15:00
2:35 AM,33.8,30.2,87,30.08,5.0,NNW,3.5,-,N/A,,Clear,340,2013-03-30 08:35:00
2:55 AM,30.2,28.4,93,30.08,4.0,Calm,Calm,-,N/A,,Clear,0,2013-03-30 08:55:00
3:15 AM,30.2,28.4,93,30.09,5.0,Calm,Calm,-,N/A,,Clear,0,2013-03-30 09:15:00
3:55 AM,28.4,26.6,93,30.08,5.0,Calm,Calm,-,N/A,,Clear,0,2013-03-30 09:55:00
4:15 AM,30.2,26.6,86,30.08,6.0,Calm,Calm,-,N/A,,Clear,0,2013-03-30 10:15:00
4:35 AM,30.2,28.4,93,30.08,5.0,Calm,Calm,-,N/A,,Clear,0,2013-03-30 10:35:00
4:55 AM,28.4,24.8,86,30.08,5.0,WSW,3.5,-,N/A,,Clear,250,2013-03-30 10:55:00
5:15 AM,28.4,26.6,93,30.08,5.0,Calm,Calm,-,N/A,,Clear,0,2013-03-30 11:15:00
5:35 AM,32.0,28.4,87,30.09,4.0,Calm,Calm,-,N/A,,Clear,0,2013-03-30 11:35:00
6:15 AM,28.4,26.6,93,30.09,3.0,Calm,Calm,-,N/A,,Clear,0,2013-03-30 12:15:00
6:35 AM,30.2,28.4,93,30.09,5.0,Calm,Calm,-,N/A,,Clear,0,2013-03-30 12:35:00
7:15 AM,26.6,24.8,93,30.10,0.2,South,3.5,-,N/A,,Overcast,190,2013-03-30 13:15:00
7:35 AM,26.6,24.8,93,30.10,0.2,Calm,Calm,-,N/A,,Overcast,0,2013-03-30 13:35:00
8:15 AM,30.2,28.4,93,30.11,3.0,Calm,Calm,-,N/A,,Clear,0,2013-03-30 14:15:00
8:35 AM,30.2,30.2,100,30.11,2.5,Calm,Calm,-,N/A,,Clear,0,2013-03-30 14:35:00
8:55 AM,30.2,30.2,100,30.11,3.0,South,4.6,-,N/A,,Clear,180,2013-03-30 14:55:00
9:15 AM,33.8,30.2,87,30.11,3.0,South,3.5,-,N/A,,Clear,170,2013-03-30 15:15:00
9:35 AM,33.8,30.2,87,30.10,5.0,South,3.5,-,N/A,,Clear,170,2013-03-30 15:35:00
9:55 AM,35.6,32.0,87,30.10,7.0,South,3.5,-,N/A,,Clear,170,2013-03-30 15:55:00
10:15 AM,35.6,32.0,87,30.10,9.0,Calm,Calm,-,N/A,,Clear,0,2013-03-30 16:15:00
10:35 AM,37.4,33.8,87,30.11,10.0,Calm,Calm,-,N/A,,Clear,0,2013-03-30 16:35:00
10:55 AM,39.2,35.6,87,30.10,10.0,South,4.6,-,N/A,,Clear,190,2013-03-30 16:55:00
11:15 AM,42.8,37.4,81,30.10,10.0,Calm,Calm,-,N/A,,Clear,0,2013-03-30 17:15:00
11:35 AM,42.8,35.6,76,30.10,10.0,NNW,5.8,-,N/A,,Clear,330,2013-03-30 17:35:00
11:55 AM,42.8,35.6,76,30.10,10.0,NW,4.6,-,N/A,,Partly Cloudy,320,2013-03-30 17:55:00
12:15 PM,44.6,35.6,71,30.09,10.0,NNW,4.6,-,N/A,,Clear,340,2013-03-30 18:15:00
12:35 PM,44.6,35.6,71,30.09,10.0,NW,6.9,-,N/A,,Clear,320,2013-03-30 18:35:00
12:55 PM,46.4,39.2,76,30.09,10.0,NNW,15.0,-,N/A,,Scattered Clouds,330,2013-03-30 18:55:00
1:15 PM,44.6,37.4,76,30.11,10.0,NW,23.0,-,N/A,,Scattered Clouds,320,2013-03-30 19:15:00
1:35 PM,42.8,32.0,66,30.11,10.0,NW,21.9,27.6,N/A,,Scattered Clouds,320,2013-03-30 19:35:00
1:55 PM,42.8,33.8,70,30.11,10.0,NNW,20.7,26.5,N/A,,Overcast,340,2013-03-30 19:55:00
2:15 PM,42.8,33.8,70,30.12,10.0,NNW,19.6,25.3,N/A,,Mostly Cloudy,340,2013-03-30 20:15:00
2:35 PM,41.0,35.6,81,30.12,10.0,NW,17.3,21.9,N/A,,Overcast,320,2013-03-30 20:35:00
2:56 PM,39.2,33.8,81,30.11,10.0,WNW,6.9,-,N/A,,Mostly Cloudy,290,2013-03-30 20:56:00
3:15 PM,42.8,37.4,81,30.10,10.0,West,9.2,-,N/A,,Scattered Clouds,280,2013-03-30 21:15:00
3:35 PM,44.6,37.4,76,30.10,10.0,West,13.8,18.4,N/A,,Clear,280,2013-03-30 21:35:00
3:55 PM,44.6,37.4,76,30.10,10.0,WNW,16.1,20.7,N/A,,Clear,290,2013-03-30 21:55:00
4:15 PM,46.4,35.6,66,30.10,10.0,NW,17.3,25.3,N/A,,Clear,310,2013-03-30 22:15:00
4:35 PM,46.4,37.4,71,30.10,10.0,NW,21.9,25.3,N/A,,Clear,310,2013-03-30 22:35:00
4:55 PM,44.6,35.6,71,30.10,10.0,NW,19.6,25.3,N/A,,Partly Cloudy,310,2013-03-30 22:55:00
5:15 PM,44.6,33.8,66,30.10,10.0,NW,19.6,27.6,N/A,,Partly Cloudy,320,2013-03-30 23:15:00
5:35 PM,42.8,33.8,70,30.11,10.0,NW,16.1,25.3,N/A,,Clear,320,2013-03-30 23:35:00
5:55 PM,42.8,33.8,70,30.11,10.0,NNW,15.0,-,N/A,,Clear,330,2013-03-30 23:55:00
6:15 PM,41.0,30.2,65,30.12,10.0,NNW,12.7,20.7,N/A,,Clear,330,2013-03-31 00:15:00
6:35 PM,39.2,30.2,70,30.12,10.0,NW,11.5,-,N/A,,Clear,320,2013-03-31 00:35:00
6:55 PM,39.2,28.4,65,30.12,10.0,NW,10.4,17.3,N/A,,Clear,310,2013-03-31 00:55:00
7:15 PM,37.4,26.6,65,30.12,10.0,NW,6.9,-,N/A,,Clear,310,2013-03-31 01:15:00
7:35 PM,35.6,28.4,75,30.12,10.0,NW,5.8,-,N/A,,Clear,310,2013-03-31 01:35:00
7:55 PM,35.6,26.6,70,30.12,10.0,NW,9.2,-,N/A,,Clear,310,2013-03-31 01:55:00
8:15 PM,35.6,26.6,70,30.12,10.0,WNW,9.2,-,N/A,,Clear,300,2013-03-31 02:15:00
8:35 PM,35.6,26.6,70,30.12,10.0,NW,9.2,-,N/A,,Clear,310,2013-03-31 02:35:00
8:55 PM,35.6,24.8,65,30.13,10.0,WNW,9.2,-,N/A,,Clear,300,2013-03-31 02:55:00
9:15 PM,35.6,24.8,65,30.13,10.0,NW,8.1,-,N/A,,Clear,310,2013-03-31 03:15:00
9:35 PM,35.6,24.8,65,30.13,10.0,NW,8.1,-,N/A,,Clear,320,2013-03-31 03:35:00
9:55 PM,33.8,24.8,70,30.14,10.0,NW,5.8,-,N/A,,Clear,320,2013-03-31 03:55:00
10:15 PM,33.8,24.8,70,30.14,10.0,NW,10.4,-,N/A,,Clear,320,2013-03-31 04:15:00
10:35 PM,33.8,24.8,70,30.14,10.0,NW,9.2,-,N/A,,Clear,320,2013-03-31 04:35:00
10:55 PM,33.8,24.8,70,30.13,10.0,NNW,10.4,-,N/A,,Partly Cloudy,340,2013-03-31 04:55:00
11:35 PM,30.2,21.2,69,30.12,10.0,NNW,5.8,-,N/A,,Clear,330,2013-03-31 05:35:00
11:55 PM,30.2,23.0,75,30.12,10.0,NNW,5.8,-,N/A,,Clear,340,2013-03-31 05:55:00